Location: Bizanons
(43.2833°N, 0.3500°W)
Time: 14:48:18
(UTC+00:00)

Daily predictions for brighter satellites

Satellite Brightness Start Highest point End
(mag) Time Altitude Azimuth Time Altitude Azimuth Time Altitude Azimuth
BREEZE-M DEB (TANK) 3.4 19:10:43 10° WSW 19:13:50 67° NNW 19:23:12 10° ENE
SAR-Lupe-4 3.5 19:16:04 10° NNE 19:19:41 77° ESE 19:23:15 10° S
FALCON 9 DEB 3.8 19:18:10 10° SSW 19:20:47 27° SE 19:23:26 10° ENE
Cosmos 389 Rocket 3.9 19:19:04 10° SE 19:21:44 20° E 19:24:26 10° NE
CZ-2C R/B 3.0 19:17:01 10° N 19:22:13 71° WNW 19:27:28 10° SSW
Cosmos 2098 Rocket 4.4 19:15:11 10° N 19:22:32 75° E 19:29:49 10° SSE
Cosmos 2322 4.0 19:18:01 10° NNW 19:23:40 74° WSW 19:29:18 10° SSE
CSL-04 Rocket 3.8 19:18:49 10° SSE 19:24:07 83° WSW 19:29:26 10° NNW
Ariane Rocket 3.8 19:19:54 10° SE 19:24:24 33° ENE 19:28:54 10° N
ERS-2 2.0 19:20:46 10° NNE 19:24:25 76° ESE 19:28:02 10° S
Nadezhda 4 Rocket 4.4 19:18:23 10° NNW 19:24:39 72° W 19:30:50 10° S
Cosmos 614 Rocket 4.2 19:20:02 10° S 19:24:53 45° ESE 19:29:45 10° NNE
COSMOS 2487 4.2 19:23:17 10° SW 19:26:27 37° WNW 19:29:41 10° N
Cosmos 2251 Rocket 3.6 19:21:17 10° S 19:26:35 66° ESE 19:31:53 10° NNE
ATLAS 3B R/B 2.9 19:23:50 10° NW 19:30:55 80° NE 19:38:16 10° SE
Cosmos 2279 Rocket 4.5 19:26:16 10° SSE 19:31:54 39° E 19:37:35 10° NNE
Cosmos 1980 4.3 19:33:42 10° NNW 19:39:05 42° ENE 19:44:12 11° SE
SL-16 R/B 4.0 19:35:30 10° N 19:39:12 17° NE 19:42:53 10° E
Cosmos 2360 Rocket 4.3 19:34:38 10° NW 19:39:12 26° WSW 19:43:45 10° SSW
Cosmos 2026 Rocket 3.9 19:34:02 10° N 19:40:07 73° E 19:46:16 10° SSE
Cosmos 2151 4.5 19:38:16 10° NNE 19:41:32 21° ENE 19:44:10 13° ESE
SME Rocket 3.8 19:37:31 10° N 19:41:33 67° WNW 19:47:01 10° SSW
FALCON 9 DEB 3.4 19:39:42 10° SSW 19:42:33 36° SE 19:45:24 10° ENE
Cosmos 1992 Rocket 4.4 19:39:51 10° NNW 19:45:01 65° WSW 19:50:10 10° S
Cosmos 1455 2.6 19:42:07 10° SSW 19:45:49 65° W 19:49:33 10° N
COSMOS 2455 4.1 19:42:35 10° SSE 19:46:38 19° ESE 19:50:41 10° ENE
SL-4 R/B 2.5 19:45:17 10° SSW 19:49:21 45° SE 19:53:44 10° ENE
IRS-1A Rocket 4.4 19:44:29 10° SSE 19:49:59 61° ENE 19:55:37 10° N
CZ-4 R/B 4.4 19:50:14 10° SW 19:52:51 16° W 19:55:29 10° NW
USA 186 2.4 19:49:37 10° S 19:52:52 56° W 19:55:58 10° NNW
BREEZE M DEB (TANK) 4.2 19:50:24 10° S 19:53:12 26° ESE 19:59:07 10° ENE
Cosmos 2219 Rocket 3.0 19:48:19 10° NW 19:53:50 52° WSW 19:59:18 10° S
BREEZE-M DEB (TANK) 3.5 19:52:22 10° W 19:54:28 24° SSW 19:57:33 10° SSE
OBJECT-B 0.8 19:54:22 10° S 19:57:34 79° WSW 20:00:50 10° NNW
Cosmos 1076 Rocket 3.7 19:53:42 10° N 19:57:58 54° E 20:01:45 13° SSE
COSMOS 2428 3.3 19:52:29 10° NNW 19:58:07 58° WSW 20:03:42 10° S
ATLAS 5 CENTAUR R/B 1.3 19:57:12 10° NW 19:59:01 46° SW 20:01:00 15° SSE
Meteor 2-1 Rocket 4.4 19:54:00 10° S 19:59:51 86° W 20:05:50 10° N
Cosmos 1634 Rocket 4.2 19:55:38 10° SSW 20:01:55 78° W 20:08:10 10° N
Cosmos 2344 3.8 19:56:23 10° SW 20:03:53 73° NW 20:11:46 10° NE
Cosmos 2292 Rocket 4.2 19:58:18 10° N 20:04:34 60° ENE 20:08:34 14° SSE
Cosmos 407 Rocket 3.5 20:00:26 10° S 20:05:25 56° ESE 20:10:29 10° NNE
ARIANE 5 R/B 4.5 20:04:04 13° E 20:05:36 15° ENE 20:08:08 10° NNE
SL-8 R/B 4.4 20:01:02 10° WNW 20:05:39 47° SW 20:09:04 17° SSE
Cosmos 1356 3.3 20:02:24 10° N 20:05:50 84° E 20:08:40 14° SSE
IRIDIUM 104 4.4 20:04:42 10° SSE 20:09:49 60° E 20:14:57 10° N
Cosmos 1023 Rocket 4.5 20:05:33 10° S 20:10:29 56° ESE 20:15:28 10° NNE
Meteor 2-3 Rocket 4.2 20:09:01 10° N 20:14:28 42° ENE 20:17:47 21° SE
Cosmos 44 Rocket 4.2 20:12:42 10° S 20:16:55 27° ESE 20:21:14 10° NE
Cosmos 405 Rocket 3.1 20:14:04 10° NNW 20:18:01 67° W 20:21:35 12° S
Cosmos 1140 Rocket 3.4 20:13:37 10° S 20:18:40 64° ESE 20:23:45 10° NNE
IRIDIUM 114 4.3 20:13:45 10° S 20:18:56 74° E 20:24:10 10° N
NOSS 0 Rocket 4.2 20:12:58 10° NNW 20:19:11 71° WSW 20:24:39 14° SSE
Cosmos 1812 Rocket 3.5 20:16:18 10° S 20:20:43 80° E 20:25:12 10° N
Timation 2 Rocket 4.0 20:18:59 10° SSW 20:25:30 65° ESE 20:31:46 10° NNE
CZ-2C R/B 4.1 20:21:51 10° NNE 20:26:01 39° E 20:27:43 28° SE
Cosmos 2237 Rocket 2.2 20:21:22 10° NNW 20:27:02 90° W 20:30:48 22° SSE
IRIDIUM 103 4.3 20:22:52 10° S 20:28:05 88° E 20:33:20 10° N
Cosmos 2180 Rocket 4.4 20:22:07 10° S 20:28:17 83° E 20:34:26 10° N
Abrixas rocket 3.8 20:27:41 10° NW 20:28:20 13° NNW 20:28:20 13° NNW
Meteor 2-21 4.4 20:23:31 10° N 20:29:35 75° E 20:34:06 19° SSE
Cosmos 1825 4.3 20:27:05 10° NNW 20:30:15 25° W 20:33:23 10° SSW
BREEZE M DEB (TANK) 3.5 20:23:50 10° WSW 20:33:37 62° NNW 20:36:34 12° NE
Spot 2 Rocket 4.4 20:32:07 26° ESE 20:33:51 33° ENE 20:38:22 10° N
Cosmos 1766 Rocket 4.4 20:31:50 10° NNE 20:35:43 31° ENE 20:36:22 30° E
FALCON 9 DEB 3.3 20:36:37 10° WSW 20:39:39 60° NNW 20:41:38 19° NE
Cosmos 2227 Rocket 2.1 20:34:38 10° SSW 20:40:17 82° ESE 20:45:59 10° NNE
Cosmos 2082 4.0 20:37:15 21° SSE 20:40:31 43° ESE 20:45:49 10° NE
Cosmos 1633 2.5 20:38:29 10° N 20:42:05 78° W 20:43:19 38° S
FALCON 9 DEB 3.9 20:41:23 10° WSW 20:44:18 45° NNW 20:46:28 16° NE
Okean 3 Rocket 4.1 20:40:41 10° N 20:44:57 39° ENE 20:45:39 37° E
Lacrosse 5 rocket 4.1 20:43:53 10° NNW 20:46:12 14° N 20:48:35 10° NE
Cosmos 1655 Rocket 3.9 20:40:29 10° N 20:46:48 87° E 20:50:54 23° S
Cosmos 2297 Rocket 2.5 20:41:21 10° SSW 20:46:58 70° WNW 20:52:38 10° NNE
Cosmos 1869 3.7 20:47:58 43° E 20:47:58 43° E 20:51:38 10° NNE
Resurs 01 Rocket 1.7 20:46:10 28° S 20:48:28 74° WSW 20:52:56 10° NNW
Meteor 1-4 Rocket 3.5 20:50:30 31° NE 20:50:30 31° NE 20:52:50 10° NNE
Genesis I 3.2 20:47:41 10° NW 20:51:44 83° SW 20:52:33 55° SSE
Cosmos 2219 3.6 20:50:41 10° SW 20:56:15 65° WNW 21:01:51 10° NNE
FALCON 9 DEB 4.4 20:53:36 10° W 20:56:25 34° NNW 20:58:12 18° NNE
Cosmos 2084 Rocket 4.1 20:55:43 10° SW 20:59:35 52° NW 21:03:33 10° NNE
Cosmos 1190 Rocket 4.5 20:58:00 10° SSW 21:03:10 61° WNW 21:08:21 10° NNE
Cosmos 1763 Rocket 4.1 20:58:48 10° N 21:03:33 38° ENE 21:04:17 36° E
Terra 3.0 21:03:52 27° ENE 21:04:05 27° ENE 21:08:04 10° N
Meteor 2-8 Rocket 4.4 21:02:57 33° SSE 21:05:46 69° E 21:11:51 10° NNE
BREEZE-M DEB (TANK) 3.2 21:07:21 10° WNW 21:08:46 36° NW 21:08:46 36° NW
MINOTAUR IV R/B 4.5 21:08:46 10° NNW 21:13:19 87° WSW 21:13:51 69° SSE
SPOT 5 3.2 21:14:08 45° ENE 21:14:17 46° ENE 21:18:52 10° N
Cosmos-2242 3.9 21:12:34 19° SW 21:15:22 46° WNW 21:19:32 10° N
SPOT 1/Viking Rocket 3.5 21:14:17 46° S 21:15:52 81° WSW 21:21:08 10° NNW
NOSS 3-1 (C) 4.5 21:09:31 10° NNW 21:16:45 52° NE 21:20:23 33° ESE
Cosmos 2151 4.4 21:15:00 10° NNW 21:18:54 34° W 21:20:45 23° SW
Cosmos 676 Rocket 4.2 21:17:21 15° SSW 21:21:34 69° WNW 21:26:46 10° NNE
SL-16 R/B 2.1 21:18:24 10° NNW 21:24:08 88° WSW 21:25:19 58° SSE
USA 215 3.4 21:21:35 38° E 21:24:10 65° NE 21:30:39 10° NW
SL-4 R/B 3.2 21:24:46 10° W 21:29:04 47° NNW 21:33:33 10° NE
COSMOS 2455 3.0 21:25:54 10° SW 21:31:54 73° WNW 21:37:57 10° NNE
ERS-1 Rocket 2.8 21:33:53 74° ESE 21:34:06 76° ENE 21:39:08 10° N
Cosmos 1408 Rocket 3.9 21:31:13 10° N 21:34:52 58° NNE 21:34:52 58° NNE
Cosmos 2221 3.3 21:41:54 43° NNE 21:41:54 43° NNE 21:44:52 10° NNE
ARIANE 5 R/B 3.0 21:41:36 58° W 21:41:36 58° W 21:45:56 10° NNW
Cosmos 1862 4.4 21:38:50 10° N 21:41:30 40° NNE 21:41:30 40° NNE
Meteor 2-15 Rocket 4.3 21:43:55 67° SSE 21:44:43 79° E 21:50:48 10° N
Cosmos 1943 3.9 21:44:39 10° NNW 21:49:55 39° ENE 21:50:06 38° ENE
Cosmos 1745 Rocket 4.3 21:47:16 10° N 21:53:21 48° ENE 21:53:25 48° ENE
Cosmos 44 Rocket 4.4 21:53:22 10° WSW 21:58:13 45° NW 22:03:15 10° NNE
Cosmos 1741 Rocket 4.1 22:05:12 75° NNW 22:05:12 75° NNW 22:10:14 10° NNE
S3M 4.2 22:05:25 58° E 22:05:25 58° E 22:11:23 10° NNE
BREEZE-M DEB (TANK) 3.8 22:00:00 10° WNW 22:06:19 54° NW 22:06:19 54° NW
Cosmos 1850 Rocket 4.1 22:08:07 69° NW 22:08:07 69° NW 22:13:11 10° NNE
Cosmos 2263 Rocket 2.5 22:16:15 57° NE 22:16:15 57° NE 22:20:40 10° NNE
Aureole 1 Rocket 3.8 22:17:34 67° NNW 22:17:34 67° NNW 22:21:44 10° NNE
SL-08 R/B 4.4 22:16:02 10° NNW 22:22:13 74° W 22:22:24 74° WSW
Cosmos 1386 Rocket 4.4 22:16:45 10° N 22:22:22 73° NE 22:22:22 73° NE
USA 229 DEB 3.8 22:18:48 10° NW 22:26:12 80° NE 22:27:01 72° ESE
USA 229 3.8 22:18:54 10° NW 22:26:18 80° NE 22:27:08 71° ESE
Lacrosse 5 rocket 3.2 22:22:31 10° NNW 22:25:34 30° N 22:25:34 30° N
Cosmos 1553 Rocket 4.2 22:33:03 58° W 22:33:26 59° WNW 22:39:28 10° N
Cosmos 841 Rocket 4.2 22:32:23 10° NNW 22:36:20 50° NW 22:36:20 50° NW
Cosmos 1603 4.0 22:33:05 10° NNW 22:37:52 63° NNW 22:37:52 63° NNW
Terra 3.3 22:42:44 31° WNW 22:42:44 31° WNW 22:46:02 10° NNW
NOSS 3-1 (A) 4.0 22:36:34 10° NW 22:44:14 89° SW 22:45:03 76° SSE
USA 215 4.2 23:08:55 35° W 23:08:55 35° W 23:13:29 10° WNW
SL-4 R/B 4.2 23:05:30 10° WNW 23:09:09 29° N 23:09:09 29° N
Cosmos 2315 Rocket 4.3 23:16:01 66° NNW 23:16:01 66° NNW 23:21:31 10° N
ATLAS 5 CENTAUR R/B 4.4 23:20:13 10° N 23:24:06 19° NE 23:27:06 14° ENE
SeaSat 1 3.8 23:27:46 10° NNE 23:31:05 36° NNW 23:31:05 36° NNW
Cosmos 2074 Rocket 4.4 23:36:08 10° N 23:41:12 58° NNE 23:41:12 58° NNE
USA 281 4.1 23:43:09 39° ENE 23:43:48 40° NE 23:49:51 10° N
